N4042M KIND-

Flight info

Callsign N4042M
Flight time N/A
Altitude VFR/010
Route EAST +FF
Aircraft B58T/L-VGD/C

Departure

Time 2026-05-05 23:19
Airport Indianapolis International Airport (KIND)

Arrival

Time N/A
Airport -
Time Latitude Longitude Altitude Speed Heading
2026-05-05 23:02 39.72397 -86.30399 778 ft 0 kts 124°
2026-05-05 23:06 39.72392 -86.30390 779 ft 5 kts 141°
2026-05-05 23:07 39.72362 -86.30375 780 ft 1 kts 163°
2026-05-05 23:07 39.72360 -86.30375 780 ft 3 kts 167°
2026-05-05 23:07 39.72323 -86.30358 781 ft 4 kts 145°
2026-05-05 23:07 39.72302 -86.30334 782 ft 3 kts 137°
2026-05-05 23:08 39.72283 -86.30325 782 ft 8 kts 180°
2026-05-05 23:08 39.72232 -86.30377 782 ft 11 kts 224°
2026-05-05 23:08 39.72181 -86.30442 779 ft 9 kts 225°
2026-05-05 23:08 39.72142 -86.30494 778 ft 7 kts 224°
2026-05-05 23:09 39.72100 -86.30538 778 ft 8 kts 222°
2026-05-05 23:09 39.72052 -86.30606 778 ft 13 kts 225°
2026-05-05 23:09 39.71975 -86.30707 777 ft 19 kts 226°
2026-05-05 23:09 39.71894 -86.30809 779 ft 14 kts 225°
2026-05-05 23:10 39.71819 -86.30904 781 ft 14 kts 224°
2026-05-05 23:10 39.71748 -86.30995 781 ft 15 kts 225°
2026-05-05 23:10 39.71680 -86.31085 783 ft 0 kts 224°
2026-05-05 23:10 39.71675 -86.31091 783 ft 10 kts 222°
2026-05-05 23:11 39.71573 -86.31220 781 ft 30 kts 222°
2026-05-05 23:11 39.71428 -86.31401 779 ft 26 kts 225°
2026-05-05 23:11 39.71308 -86.31562 778 ft 24 kts 225°
2026-05-05 23:11 39.71205 -86.31689 778 ft 18 kts 226°
2026-05-05 23:12 39.71133 -86.31780 780 ft 11 kts 227°
2026-05-05 23:12 39.71095 -86.31828 782 ft 5 kts 220°
2026-05-05 23:12 39.71055 -86.31878 782 ft 20 kts 227°
2026-05-05 23:12 39.70922 -86.32058 783 ft 28 kts 223°
2026-05-05 23:13 39.70865 -86.32122 783 ft 0 kts 222°
2026-05-05 23:13 39.70797 -86.32208 780 ft 19 kts 225°
2026-05-05 23:13 39.70736 -86.32184 780 ft 13 kts 126°
2026-05-05 23:13 39.70721 -86.32160 780 ft 0 kts 134°
2026-05-05 23:18 39.70695 -86.32127 780 ft 14 kts 134°
2026-05-05 23:18 39.70699 -86.32011 782 ft 29 kts 46°
2026-05-05 23:18 39.71016 -86.31609 782 ft 94 kts 41°
2026-05-05 23:19 39.71534 -86.30896 907 ft 120 kts 45°
2026-05-05 23:19 39.72153 -86.30093 1106 ft 132 kts 39°
2026-05-05 23:19 39.72813 -86.29253 1370 ft 134 kts 42°
2026-05-05 23:19 39.73457 -86.28409 1730 ft 128 kts 40°
2026-05-05 23:20 39.74040 -86.27609 2074 ft 116 kts 43°
2026-05-05 23:20 39.74574 -86.26856 2296 ft 112 kts 41°
2026-05-05 23:20 39.75058 -86.26144 2450 ft 100 kts 41°
2026-05-05 23:20 39.75511 -86.25459 2564 ft 106 kts 42°
2026-05-05 23:21 39.76031 -86.24687 2655 ft 122 kts 43°
2026-05-05 23:21 39.76653 -86.23804 2157 ft 142 kts 43°
2026-05-05 23:21 39.77348 -86.22828 1503 ft 146 kts 44°
2026-05-05 23:21 39.78046 -86.21952 1258 ft 130 kts 39°